FW6260 Weather Reports


Display with metric or nautical units.
time (UTC)temp
F
wind
direction
speed
MPH
gust
MPH
rain 1hr
in
rain 24hr
in
rain mn
in
humidity
%
barometer
mb
20260901223116 54 136 0.0 1.0 0.00 0.00 0.00 90
20260901220046 55 142 0.0 2.0 0.00 0.00 0.00 89
20260901213016 55 126 0.0 1.0 0.00 0.00 0.00 89
20260901210047 56 0.0 0.0 0.00 0.00 0.00 87
20260901203017 57 127 0.0 1.0 0.00 0.00 0.00 85
20260901200048 57 0.0 0.0 0.00 0.00 0.00 86
20260901193018 58 0.0 0.0 0.00 0.00 0.00 81
20260901190049 60 0.0 0.0 0.00 0.00 0.00 78
20260901183019 61 0.0 0.0 0.00 0.00 0.00 75
20260901180050 66 148 0.0 1.0 0.00 0.00 0.00 66
20260901173040 71 201 0.0 2.0 0.00 0.00 0.00 55
20260901170111 72 146 1.0 4.0 0.00 0.00 0.00 53
20260901163021 73 196 1.0 7.0 0.00 0.00 0.00 51
20260901160052 73 219 2.0 7.0 0.00 0.00 0.00 49
20260901153023 74 212 2.0 6.0 0.00 0.00 0.00 48
20260901150053 74 234 2.0 7.0 0.00 0.00 0.00 48
20260901143043 75 230 2.0 8.0 0.00 0.00 0.00 48
20260901140054 74 245 3.0 10.0 0.00 0.00 0.00 50
20260901133024 74 193 2.0 7.0 0.00 0.00 0.00 51
20260901130056 73 218 2.0 9.0 0.00 0.00 0.00 53
20260901123026 72 192 2.0 6.0 0.00 0.00 0.00 55
20260901120057 72 190 2.0 8.0 0.00 0.00 0.00 56
20260901113026 71 230 2.0 7.0 0.00 0.00 0.00 59
20260901110057 69 232 2.0 7.0 0.00 0.00 0.00 64
20260901103027 68 216 1.0 4.0 0.00 0.00 0.00 65
20260901100058 67 221 2.0 7.0 0.00 0.00 0.00 66
20260901093028 68 198 2.0 7.0 0.00 0.00 0.00 66
20260901090059 68 210 2.0 6.0 0.00 0.00 0.00 67
20260901083029 67 156 2.0 7.0 0.00 0.00 0.00 71
20260901080120 66 142 1.0 3.0 0.00 0.00 0.00 72
20260901073031 64 168 1.0 6.0 0.00 0.00 0.00 76
20260901070121 63 166 1.0 6.0 0.00 0.00 0.00 80
20260901063030 59 129 0.0 2.0 0.00 0.00 0.00 87
20260901060122 56 133 0.0 2.0 0.00 0.01 0.00 91
20260901053031 53 132 1.0 3.0 0.00 0.01 0.00 96
20260901043033 54 124 0.0 2.0 0.00 0.01 0.00 95
20260901040104 54 0.0 1.0 0.00 0.01 0.00 93
20260901033034 56 126 0.0 3.0 0.00 0.01 0.00 91
20260901030104 56 122 0.0 2.0 0.00 0.03 0.00 90
20260901023034 57 119 0.0 3.0 0.00 0.29 0.00 90
20260901020105 58 117 0.0 2.0 0.00 0.29 0.00 88
20260901013035 58 120 0.0 2.0 0.00 0.29 0.00 86
20260901010106 60 134 0.0 2.0 0.00 0.29 0.00 82
20260901003036 61 155 0.0 2.0 0.00 0.29 0.00 79
20260901000107 61 124 1.0 3.0 0.00 0.29 0.00 78
20260831233037 62 195 1.0 8.0 0.00 0.29 0.00 77
20260831230108 61 156 1.0 4.0 0.00 0.29 0.00 79